Voltar ao catálogo

STARLINK-35270

AtivoComunicaçõesVLEO
NORAD 65882·PAYLOAD·🇺🇸 United States

Lançado Oct 7, 2025 de Cape Canaveral Space Force Station

Loading…

Próximas Passagens (próximas 24 horas)

TLE

AtualizadoSource: CelesTrak SupGP

Época: Sep 14, 2026, 22:46 UTC

1 65882C 25224A   26257.94909722 -.00002455  00000+0 -72430-4 0  2572
2 65882  53.1577 208.0224 0001428 103.7888 147.1073 15.34442185    18

Acompanhe STARLINK-35270 em tempo real com AllMySat

Download on the App Store